[[{"header":{"parameterUnit":"m.s-1","parameterCategory":2,"la1":30.2991,"la2":30.254,"lo1":-89.0895,"lo2":-89.0444,"dy":0.0017,"dx":0.0017,"nx":28,"ny":28,"refTime":"2025-04-03T03:00:00:Z","depth":"0","parameterNumber":2,"parameterNumberName":"U-component_of_CURRENTS"},"data":[0,0,0,0,0,0,0,0,0,0,0,0,0,0,0,0,0,0,0,0,0,0,0,0,0,0,0,0,0,0,0,0,0,0,0,0,0,0,0,0,0,0,0,0,0,0,0,0,0,0,0,0,0,0,0,0,0,0,-0.248,-0.248,0,-0.2504,-0.2504,-0.2504,-0.2479,-0.2478,-0.2478,-0.2477,-0.246,-0.2461,-0.2461,0,0,0,0,0,0,0,0,0,0,0,0,0,-0.2418,-0.2419,-0.248,-0.2481,-0.2481,-0.2504,-0.2504,-0.2504,-0.2479,-0.2478,-0.2477,-0.2477,-0.246,-0.2461,-0.2461,0,0,0,0,0,0,0,0,0,0,0,0,0,-0.2441,-0.2419,-0.248,-0.2473,-0.2473,-0.2504,-0.2504,-0.2504,-0.2479,-0.2478,-0.2477,-0.2476,-0.246,-0.2461,-0.2461,-0.2485,0,0,-0.2462,-0.2462,0,0,0,0,0,0,0,0,-0.244,-0.2443,-0.2474,-0.2474,-0.2474,-0.2489,-0.2476,-0.2496,-0.248,-0.2475,-0.2477,-0.2476,-0.2469,-0.2468,-0.2472,-0.2485,-0.2484,-0.2462,-0.2462,-0.2463,-0.2463,0,0,0,0,0,0,0,-0.2438,-0.2442,-0.2487,-0.2474,-0.2474,-0.2471,-0.2472,-0.248,-0.2475,-0.2475,-0.2474,-0.2481,-0.2468,-0.2472,-0.2472,-0.2484,-0.2462,-0.2462,-0.2463,-0.2463,-0.2532,-0.2533,0,0,0,0,0,0,-0.2441,-0.2441,-0.2486,-0.2488,-0.2456,-0.2473,-0.2475,-0.2483,-0.2476,-0.2475,-0.2481,-0.2479,-0.2472,-0.2471,-0.2471,-0.2521,-0.2463,-0.2463,-0.2463,-0.253,-0.2532,-0.2534,0,0,0,0,0,0,-0.244,-0.2445,-0.2485,-0.2466,-0.2471,-0.2475,-0.2485,-0.2485,-0.2484,-0.2482,-0.2479,-0.2482,-0.2471,-0.2471,-0.2483,-0.2519,-0.2463,-0.2463,-0.2528,-0.2531,-0.2533,-0.2607,0,0,0,0,0,0,-0.2438,-0.2445,-0.2446,-0.2467,-0.2473,-0.2511,-0.2487,-0.2486,-0.2492,-0.2489,-0.2481,-0.2479,-0.247,-0.2482,-0.2483,-0.2519,-0.2464,-0.2526,-0.2529,-0.2532,-0.2602,-0.2611,-0.2619,0,0,0,0,0,-0.2436,-0.245,-0.2446,-0.2452,-0.2477,-0.2512,-0.2515,-0.2511,-0.2493,-0.2504,-0.2496,-0.2479,-0.2502,-0.2484,-0.2484,-0.2521,-0.2525,-0.2529,-0.2532,-0.2598,-0.261,-0.2619,0,0,0,0,0,0,-0.2422,-0.245,-0.2446,-0.2466,-0.2489,-0.2509,-0.2516,-0.2514,-0.2517,-0.2509,-0.2495,-0.2494,-0.252,-0.251,-0.249,-0.255,-0.2513,-0.2517,-0.2563,-0.2573,-0.2582,-0.2592,-0.2464,0,0,0,0,0,-0.2422,-0.2436,-0.2465,-0.2479,-0.2492,-0.2502,-0.2512,-0.2516,-0.2525,-0.2524,-0.252,-0.2521,-0.2539,-0.2545,-0.2552,-0.2583,-0.2555,-0.2608,-0.2617,-0.2624,-0.2634,-0.2628,-0.2636,-0.2546,-0.2546,-0.2546,0,0,-0.2417,-0.2435,-0.2441,-0.2476,-0.2488,-0.2528,-0.2505,-0.2528,-0.2561,-0.2523,-0.2553,-0.2547,-0.2552,-0.2589,-0.2601,-0.2583,-0.2632,-0.2629,-0.2635,-0.264,-0.2632,-0.2641,-0.2648,-0.2548,-0.2548,-0.2547,0,0,-0.243,-0.2436,-0.2458,-0.2488,-0.2519,-0.2538,-0.2547,-0.2572,-0.2581,-0.2612,-0.2599,-0.2614,-0.263,-0.265,-0.2661,-0.2721,-0.2675,-0.2723,-0.2777,-0.2772,-0.2779,-0.2785,-0.2744,-0.2746,-0.273,-0.273,-0.273,0,-0.2421,-0.2459,-0.247,-0.251,-0.254,-0.2547,-0.2591,-0.2614,-0.2638,-0.2655,-0.2629,-0.2669,-0.2666,-0.2727,-0.2749,-0.2742,-0.2713,-0.2738,-0.2782,-0.2787,-0.2792,-0.2749,-0.275,-0.2734,-0.2733,-0.2733,-0.2733,0,-0.2459,-0.2494,-0.2514,-0.2568,-0.2603,-0.264,-0.2684,-0.2711,-0.2715,-0.2733,-0.2776,-0.2773,-0.2793,-0.2805,-0.2796,-0.2845,-0.2803,-0.2789,-0.2754,-0.2806,-0.2757,-0.2757,-0.2739,-0.2738,-0.2737,-0.2736,0,0,-0.242,-0.2521,-0.2525,-0.2566,-0.2638,-0.2669,-0.2738,-0.2799,-0.2832,-0.2853,-0.289,-0.2931,-0.291,-0.2921,-0.2913,-0.2918,-0.292,-0.2872,-0.2869,-0.2826,-0.2878,-0.2823,-0.2817,-0.2909,-0.291,-0.291,-0.2823,0,-0.2443,-0.2529,-0.2577,-0.2659,-0.2708,-0.2757,-0.282,-0.2875,-0.2902,-0.2937,-0.2953,-0.2975,-0.2962,-0.2959,-0.2971,-0.2931,-0.2926,-0.2943,-0.2838,-0.2835,-0.2777,-0.2818,-0.2744,-0.2659,-0.2822,-0.2822,-0.2822,0,-0.2456,-0.2517,-0.2603,-0.2712,-0.2736,-0.2785,-0.2872,-0.2929,-0.2994,-0.3012,-0.3045,-0.3039,-0.3065,-0.3028,-0.3003,-0.3009,-0.2954,-0.2919,-0.2914,-0.284,-0.2781,-0.2638,-0.2651,-0.2644,-0.2821,-0.2821,-0.2821,0,-0.2413,-0.253,-0.2598,-0.2636,-0.276,-0.28,-0.2857,-0.2938,-0.2984,-0.3042,-0.3059,-0.3091,-0.308,-0.305,-0.2983,-0.2985,-0.2925,-0.2914,-0.2814,-0.2808,-0.2714,-0.2699,-0.2707,-0.2891,-0.2891,-0.2892,-0.2892,0,-0.2416,-0.2465,-0.2579,-0.2615,-0.2685,-0.2776,-0.2844,-0.2906,-0.2984,-0.302,-0.3075,-0.3087,-0.3084,-0.3049,-0.2991,-0.2896,-0.2927,-0.2829,-0.2793,-0.2736,-0.2724,-0.2688,-0.2699,-0.2888,-0.2889,-0.289,-0.289,0,-0.2355,-0.2437,-0.2512,-0.2633,-0.2666,-0.2705,-0.2821,-0.2861,-0.2951,-0.2993,-0.3006,-0.307,-0.303,-0.3007,-0.2937,-0.2888,-0.2765,-0.2766,-0.2684,-0.2642,-0.2555,-0.2572,-0.2506,-0.2433,-0.2649,-0.2647,-0.2646,0,-0.2333,-0.2367,-0.2487,-0.2511,-0.2559,-0.2636,-0.2681,-0.2812,-0.2853,-0.2963,-0.2961,-0.2976,-0.2951,-0.2858,-0.2787,-0.2685,-0.2674,-0.2557,-0.2569,-0.255,-0.2543,-0.2542,-0.2486,-0.2457,-0.2454,-0.2452,-0.245,0,-0.2271,-0.2308,-0.2357,-0.2417,-0.2462,-0.2532,-0.2604,-0.264,-0.2772,-0.2814,-0.2839,-0.2836,-0.2798,-0.2697,-0.2609,-0.253,-0.2513,-0.2505,-0.2514,-0.2427,-0.2397,-0.2309,-0.2497,-0.2429,-0.2432,-0.2433,-0.2434,-0.2435,-0.2187,-0.2197,-0.2251,-0.2295,-0.2346,-0.2384,-0.2385,-0.2474,-0.2521,-0.256,-0.2649,-0.2633,-0.2627,-0.2507,-0.2435,-0.2326,-0.2346,-0.2271,-0.2297,-0.2301,-0.2235,-0.2369,-0.2253,-0.2254,-0.2255,-0.2256,-0.2257,0,-0.2073,-0.2092,-0.2125,-0.2166,-0.2158,-0.2241,-0.2293,-0.2265,-0.2254,-0.2357,-0.2371,-0.2419,-0.2337,-0.2333,-0.2252,-0.216,-0.2098,-0.2108,-0.2107,-0.2059,-0.2195,-0.2193,-0.2025,-0.2025,-0.2025,-0.2025,-0.2025,-0.2025,-0.2009,-0.1991,-0.2016,-0.1961,-0.1977,-0.1919,-0.1911,-0.1895,-0.1937,-0.1958,-0.2044,-0.2155,-0.2178,-0.2325,-0.221,-0.2106,-0.2043,-0.1983,-0.1982,-0.2119,-0.2137,-0.2154,-0.2157,-0.1984,-0.1984,-0.1785,-0.1784,-0.1783]},{"header":{"parameterUnit":"m.s-1","parameterCategory":2,"la1":30.2991,"la2":30.254,"lo1":-89.0895,"lo2":-89.0444,"dy":0.0017,"dx":0.0017,"nx":28,"ny":28,"refTime":"2025-04-03T03:00:00:Z","depth":"0","parameterNumber":3,"parameterNumberName":"V-component_of_CURRENTS"},"data":[0,0,0,0,0,0,0,0,0,0,0,0,0,0,0,0,0,0,0,0,0,0,0,0,0,0,0,0,0,0,0,0,0,0,0,0,0,0,0,0,0,0,0,0,0,0,0,0,0,0,0,0,0,0,0,0,0,0,-0.0219,-0.0218,0,-0.0124,-0.0122,-0.0121,-0.0052,-0.0052,-0.0052,-0.0051,0.0089,0.0092,0.0095,0,0,0,0,0,0,0,0,0,0,0,0,0,-0.0281,-0.028,-0.0219,-0.0218,-0.0217,-0.0124,-0.0122,-0.0121,-0.0053,-0.0052,-0.0052,-0.0051,0.0087,0.0091,0.0095,0,0,0,0,0,0,0,0,0,0,0,0,0,-0.0225,-0.028,-0.0219,-0.0173,-0.0168,-0.0124,-0.0122,-0.012,-0.0053,-0.0052,-0.0051,-0.0051,0.0086,0.0091,0.0096,0.0115,0,0,0.0111,0.0114,0,0,0,0,0,0,0,0,-0.0228,-0.0222,-0.0181,-0.0176,-0.0171,-0.0101,-0.0093,-0.004,-0.0053,-0.0095,-0.0051,-0.0051,0.0028,0.0037,0.0056,0.0122,0.0128,0.0112,0.0115,0.0117,0.0119,0,0,0,0,0,0,0,-0.0232,-0.0226,-0.0179,-0.018,-0.0174,-0.0136,-0.0128,-0.0082,-0.0036,-0.0091,-0.0086,-0.0079,0.0031,0.0051,0.006,0.013,0.0112,0.0116,0.0119,0.0121,0.024,0.024,0,0,0,0,0,0,-0.0252,-0.023,-0.0182,-0.0177,-0.0201,-0.0136,-0.0127,-0.0122,-0.0037,-0.0024,-0.0079,-0.0076,0.0042,0.0054,0.0065,0.0107,0.0117,0.0122,0.0125,0.024,0.024,0.0241,0,0,0,0,0,0,-0.0253,-0.0249,-0.0186,-0.0202,-0.0192,-0.0136,-0.0132,-0.0121,-0.01,-0.0029,-0.0015,-0.007,0.0043,0.0058,0.0104,0.0112,0.0124,0.0129,0.024,0.024,0.024,0.0181,0,0,0,0,0,0,-0.0256,-0.025,-0.0254,-0.0204,-0.0192,-0.0167,-0.0132,-0.012,-0.0097,-0.0092,-0.0016,-0.0003,0.0045,0.0096,0.0109,0.0119,0.0133,0.024,0.024,0.024,0.0183,0.0179,0.0176,0,0,0,0,0,-0.0258,-0.027,-0.0255,-0.0249,-0.02,-0.0168,-0.0158,-0.0115,-0.0098,-0.0093,-0.0041,-0.0005,0.0108,0.01,0.0116,0.0127,0.024,0.024,0.024,0.0184,0.018,0.0176,0,0,0,0,0,0,-0.0298,-0.0263,-0.0245,-0.0246,-0.0213,-0.0157,-0.0151,-0.0122,-0.0077,-0.0072,-0.0004,0.0013,0.0055,0.0097,0.0088,0.0162,0.018,0.0183,0.0132,0.0129,0.0125,0.0116,0.0137,0,0,0,0,0,-0.0311,-0.0311,-0.0267,-0.0268,-0.0256,-0.0205,-0.0187,-0.0159,-0.0113,-0.0093,-0.004,0.0017,0.0068,0.0101,0.0147,0.0189,0.0238,0.0207,0.0203,0.02,0.0203,0.0288,0.0293,0.0242,0.0242,0.0242,0,0,-0.0326,-0.0308,-0.0307,-0.0276,-0.0248,-0.0235,-0.0193,-0.0173,-0.0154,-0.0085,-0.0046,0.0002,0.0073,0.0118,0.0142,0.0157,0.0236,0.02,0.0197,0.0202,0.0289,0.0294,0.0299,0.0242,0.0242,0.0242,0,0,-0.0362,-0.0342,-0.0354,-0.0331,-0.0298,-0.0263,-0.0262,-0.021,-0.0179,-0.0139,-0.0084,-0.0029,0.0042,0.0103,0.0141,0.0148,0.0208,0.0158,0.0146,0.0228,0.0233,0.0238,0.0287,0.0297,0.0166,0.0166,0.0166,0,-0.0382,-0.039,-0.0352,-0.0355,-0.0342,-0.0281,-0.0286,-0.0243,-0.0181,-0.0151,-0.0137,-0.0013,0.004,0.0118,0.0118,0.0143,0.0185,0.0154,0.0224,0.023,0.0236,0.0285,0.0297,0.0163,0.0163,0.0164,0.0164,0,-0.0423,-0.0427,-0.0433,-0.0415,-0.0393,-0.0389,-0.0329,-0.0298,-0.0255,-0.0203,-0.0128,-0.0048,0.0029,0.0055,0.0089,0.0161,0.0173,0.0201,0.0232,0.0238,0.0289,0.0302,0.0159,0.016,0.0161,0.0161,0,0,-0.0471,-0.0466,-0.0466,-0.0473,-0.0427,-0.0415,-0.0378,-0.0323,-0.0291,-0.0216,-0.0162,-0.0069,-0.0019,0.0027,0.0087,0.0163,0.0233,0.0193,0.0199,0.0236,0.0392,0.0415,0.0432,0.0274,0.0276,0.0278,0.0402,0,-0.0515,-0.0552,-0.0521,-0.0538,-0.0551,-0.0482,-0.0452,-0.0388,-0.0318,-0.0249,-0.014,-0.0071,-0.0029,0.0008,0.0088,0.0201,0.0269,0.0195,0.0385,0.039,0.0407,0.0449,0.0492,0.0608,0.0415,0.0418,0.0419,0,-0.0562,-0.0582,-0.062,-0.0608,-0.0604,-0.0594,-0.0531,-0.0494,-0.0373,-0.0316,-0.0215,-0.0126,-0.0004,0.0026,0.0227,0.0176,0.027,0.0358,0.0366,0.0421,0.044,0.0577,0.064,0.0811,0.0441,0.0439,0.0437,0,-0.0631,-0.0645,-0.0683,-0.068,-0.0654,-0.0645,-0.0617,-0.0518,-0.0481,-0.0352,-0.0302,-0.0145,-0.0061,0.0089,0.026,0.0249,0.0479,0.0492,0.06,0.0602,0.0695,0.07,0.0947,0.063,0.0629,0.0629,0.0629,0,-0.0694,-0.072,-0.0723,-0.0745,-0.0773,-0.0719,-0.071,-0.0649,-0.0553,-0.0502,-0.0349,-0.0266,-0.0038,0.0121,0.0262,0.0474,0.0484,0.0611,0.0649,0.0671,0.0673,0.0871,0.0918,0.0634,0.0633,0.0632,0.0631,0,-0.0766,-0.0767,-0.0814,-0.0813,-0.0813,-0.0833,-0.0795,-0.0775,-0.0671,-0.0597,-0.0558,-0.0341,-0.0121,0.0098,0.036,0.048,0.0782,0.0741,0.0732,0.0768,0.102,0.1059,0.1313,0.1402,0.089,0.0892,0.0893,0,-0.0807,-0.0844,-0.0883,-0.0915,-0.092,-0.0935,-0.0937,-0.0853,-0.0818,-0.0641,-0.0605,-0.037,-0.0188,0.0203,0.0475,0.0749,0.0865,0.0927,0.0923,0.1059,0.1133,0.1157,0.1214,0.1016,0.1018,0.102,0.1021,0,-0.0884,-0.0899,-0.0937,-0.1018,-0.1046,-0.1066,-0.1054,-0.1046,-0.0925,-0.0828,-0.0656,-0.0491,-0.0088,0.0277,0.0636,0.0798,0.1053,0.097,0.1146,0.1284,0.1297,0.1391,0.0877,0.1037,0.1036,0.1034,0.1034,0.1033,-0.0929,-0.0983,-0.1042,-0.111,-0.1151,-0.1179,-0.1187,-0.1135,-0.1069,-0.0896,-0.0726,-0.044,0.0104,0.0642,0.0829,0.1254,0.1198,0.1381,0.1424,0.1441,0.1521,0.1017,0.1195,0.1194,0.1194,0.1193,0.1193,0,-0.0985,-0.1045,-0.1126,-0.1201,-0.1262,-0.1254,-0.1247,-0.1215,-0.1131,-0.0923,-0.0722,-0.0116,0.0404,0.0887,0.1489,0.1708,0.1752,0.1815,0.1889,0.1931,0.1539,0.1539,0.1759,0.1759,0.1759,0.1759,0.1759,0.1758,-0.1015,-0.1111,-0.116,-0.1278,-0.1325,-0.1364,-0.1356,-0.1271,-0.1119,-0.0768,-0.0415,-0.0121,0.0591,0.1565,0.2119,0.2163,0.2337,0.2309,0.2397,0.2152,0.2116,0.2081,0.2098,0.2433,0.2433,0.2795,0.2798,0.2801]}],[{"header":{"parameterUnit":"m.s-1","parameterCategory":2,"la1":30.2991,"la2":30.254,"lo1":-89.0895,"lo2":-89.0444,"dy":0.0017,"dx":0.0017,"nx":28,"ny":28,"refTime":"2025-04-03T03:00:00:Z","depth":"2","parameterNumber":2,"parameterNumberName":"U-component_of_CURRENTS"},"data":[0,0,0,0,0,0,0,0,0,0,0,0,0,0,0,0,0,0,0,0,0,0,0,0,0,0,0,0,0,0,0,0,0,0,0,0,0,0,0,0,0,0,0,0,0,0,0,0,0,0,0,0,0,0,0,0,0,0,-0.232,-0.2321,0,-0.2343,-0.2343,-0.2343,-0.2322,-0.2321,-0.2321,-0.232,-0.2304,-0.2304,-0.2304,0,0,0,0,0,0,0,0,0,0,0,0,0,-0.226,-0.2261,-0.232,-0.2321,-0.2321,-0.2343,-0.2343,-0.2343,-0.2322,-0.2321,-0.2321,-0.232,-0.2304,-0.2304,-0.2304,0,0,0,0,0,0,0,0,0,0,0,0,0,-0.2282,-0.2261,-0.232,-0.2315,-0.2315,-0.2343,-0.2343,-0.2343,-0.2322,-0.2321,-0.232,-0.2319,-0.2304,-0.2304,-0.2304,-0.2324,0,0,-0.2305,-0.2305,0,0,0,0,0,0,0,0,-0.2281,-0.2284,-0.2315,-0.2316,-0.2316,-0.2331,-0.2315,-0.2335,-0.2322,-0.2317,-0.232,-0.2319,-0.2311,-0.2311,-0.2314,-0.2323,-0.2322,-0.2305,-0.2305,-0.2305,-0.2305,0,0,0,0,0,0,0,-0.2279,-0.2283,-0.2327,-0.2316,-0.2316,-0.2312,-0.2314,-0.2319,-0.2317,-0.2317,-0.2317,-0.2323,-0.2311,-0.2314,-0.2314,-0.2322,-0.2305,-0.2305,-0.2305,-0.2305,-0.2366,-0.2367,0,0,0,0,0,0,-0.2283,-0.2282,-0.2326,-0.2328,-0.2298,-0.2314,-0.2316,-0.2325,-0.2317,-0.2316,-0.2324,-0.2322,-0.2314,-0.2313,-0.2313,-0.236,-0.2305,-0.2305,-0.2305,-0.2364,-0.2366,-0.2367,0,0,0,0,0,0,-0.2281,-0.2286,-0.2325,-0.2307,-0.2312,-0.2316,-0.2326,-0.2326,-0.2328,-0.2323,-0.2321,-0.2327,-0.2313,-0.2313,-0.2324,-0.2358,-0.2305,-0.2305,-0.2362,-0.2365,-0.2367,-0.2439,0,0,0,0,0,0,-0.2279,-0.2286,-0.2289,-0.2307,-0.2313,-0.2349,-0.2327,-0.2327,-0.2335,-0.2332,-0.2325,-0.2322,-0.2313,-0.2324,-0.2324,-0.2358,-0.2305,-0.236,-0.2363,-0.2366,-0.2435,-0.2444,-0.2451,0,0,0,0,0,-0.2277,-0.2292,-0.2289,-0.2294,-0.2319,-0.2351,-0.2353,-0.2351,-0.2336,-0.2347,-0.234,-0.2322,-0.2342,-0.2325,-0.2325,-0.236,-0.2359,-0.2362,-0.2366,-0.2431,-0.2442,-0.2451,0,0,0,0,0,0,-0.2266,-0.2292,-0.2289,-0.2309,-0.2331,-0.2348,-0.2356,-0.2355,-0.2359,-0.2352,-0.2338,-0.2336,-0.2361,-0.235,-0.2332,-0.2386,-0.2349,-0.2353,-0.2399,-0.2409,-0.2417,-0.2425,-0.2306,0,0,0,0,0,-0.2266,-0.2281,-0.2308,-0.2321,-0.2334,-0.2344,-0.2354,-0.2358,-0.2367,-0.2367,-0.2363,-0.2363,-0.2377,-0.2382,-0.2388,-0.2416,-0.2389,-0.2439,-0.2447,-0.2454,-0.2461,-0.2457,-0.2465,-0.2378,-0.2378,-0.2378,0,0,-0.2263,-0.228,-0.2286,-0.2319,-0.2331,-0.2367,-0.2347,-0.2371,-0.24,-0.2365,-0.2393,-0.2388,-0.239,-0.2423,-0.2434,-0.2416,-0.2462,-0.2458,-0.2464,-0.2467,-0.2461,-0.2469,-0.2477,-0.2381,-0.238,-0.238,0,0,-0.2275,-0.2283,-0.2304,-0.2331,-0.2361,-0.2378,-0.2387,-0.2412,-0.2421,-0.245,-0.2437,-0.2452,-0.2466,-0.2481,-0.249,-0.2546,-0.2503,-0.2548,-0.2598,-0.2594,-0.2601,-0.2607,-0.257,-0.2572,-0.2554,-0.2554,-0.2554,0,-0.2269,-0.2302,-0.2315,-0.2351,-0.2378,-0.2387,-0.2426,-0.2448,-0.2472,-0.2487,-0.2467,-0.2502,-0.2499,-0.2551,-0.2573,-0.2566,-0.254,-0.2561,-0.2604,-0.2609,-0.2614,-0.2575,-0.2576,-0.2558,-0.2558,-0.2557,-0.2557,0,-0.2302,-0.2335,-0.2353,-0.2402,-0.2434,-0.2469,-0.2509,-0.2535,-0.2542,-0.2559,-0.2599,-0.2597,-0.2615,-0.2627,-0.2617,-0.2663,-0.2624,-0.2612,-0.2578,-0.2627,-0.2583,-0.2583,-0.2564,-0.2562,-0.2561,-0.256,0,0,-0.2269,-0.2359,-0.2363,-0.2398,-0.2465,-0.2493,-0.2556,-0.2611,-0.2641,-0.2664,-0.2697,-0.2736,-0.2721,-0.273,-0.2723,-0.2729,-0.2735,-0.2688,-0.2686,-0.2648,-0.27,-0.2643,-0.2636,-0.2727,-0.2728,-0.2728,-0.265,0,-0.2287,-0.2363,-0.2407,-0.2479,-0.2521,-0.2568,-0.2625,-0.2675,-0.2702,-0.2735,-0.2752,-0.2775,-0.2767,-0.2767,-0.2779,-0.2745,-0.2741,-0.2756,-0.2661,-0.2658,-0.2599,-0.2637,-0.2449,-0.2361,-0.2649,-0.2649,-0.2649,0,-0.2298,-0.2351,-0.2426,-0.2521,-0.2542,-0.2588,-0.2666,-0.2718,-0.2779,-0.2799,-0.2833,-0.283,-0.2858,-0.2828,-0.281,-0.2816,-0.2767,-0.2736,-0.2732,-0.2656,-0.2602,-0.2362,-0.235,-0.2648,-0.2648,-0.2648,-0.2648,0,-0.2255,-0.2358,-0.2417,-0.2451,-0.2561,-0.2599,-0.2651,-0.2727,-0.2768,-0.2827,-0.2844,-0.2878,-0.2874,-0.2849,-0.2794,-0.2797,-0.2744,-0.2734,-0.2638,-0.2631,-0.2441,-0.2417,-0.2715,-0.2715,-0.2715,-0.2715,-0.2715,0,-0.2253,-0.2295,-0.2398,-0.243,-0.249,-0.2575,-0.2636,-0.2694,-0.2769,-0.2801,-0.286,-0.2872,-0.2878,-0.285,-0.28,-0.2714,-0.2746,-0.265,-0.2618,-0.246,-0.244,-0.2669,-0.2665,-0.2712,-0.2713,-0.2713,-0.2714,0,-0.2194,-0.2268,-0.2332,-0.2441,-0.2472,-0.2507,-0.2615,-0.2649,-0.2739,-0.2778,-0.2794,-0.2859,-0.2828,-0.2812,-0.2752,-0.2706,-0.2637,-0.2593,-0.2396,-0.2344,-0.252,-0.2521,-0.2483,-0.248,-0.2478,-0.2477,-0.2475,0,-0.2171,-0.2199,-0.2305,-0.2326,-0.2372,-0.2443,-0.2482,-0.2606,-0.2642,-0.275,-0.2747,-0.2769,-0.2745,-0.2664,-0.2584,-0.2488,-0.2558,-0.2267,-0.226,-0.2529,-0.2501,-0.2505,-0.2508,-0.2017,-0.2012,-0.2008,-0.2005,0,-0.2108,-0.2142,-0.2183,-0.2235,-0.2276,-0.2335,-0.2402,-0.2434,-0.2559,-0.2599,-0.2625,-0.2623,-0.258,-0.2416,-0.233,-0.2247,-0.2277,-0.2181,-0.2498,-0.2127,-0.209,-0.2064,-0.2081,-0.1968,-0.1971,-0.1974,-0.1976,-0.1978,-0.2029,-0.2034,-0.208,-0.2116,-0.2161,-0.2191,-0.2188,-0.2265,-0.2304,-0.2321,-0.2416,-0.2345,-0.2329,-0.2107,-0.1996,-0.1909,-0.206,-0.1959,-0.1972,-0.1988,-0.1971,-0.1935,-0.1777,-0.178,-0.1782,-0.1784,-0.1785,0,-0.1916,-0.1931,-0.1956,-0.1987,-0.1973,-0.2055,-0.2095,-0.205,-0.203,-0.2081,-0.2079,-0.1857,-0.1778,-0.1762,-0.1584,-0.1558,-0.1532,-0.1484,-0.1451,-0.1489,-0.1522,-0.1481,-0.1156,-0.1155,-0.1153,-0.1151,0,0,-0.1854,-0.1827,-0.1845,-0.1782,-0.1798,-0.1732,-0.1721,-0.1671,-0.1666,-0.1575,-0.1542,-0.1684,-0.1719,-0.144,-0.1377,-0.1243,-0.1349,-0.1178,-0.1681,-0.168,-0.1711,-0.1794,-0.1773,0,0,0,0,0]},{"header":{"parameterUnit":"m.s-1","parameterCategory":2,"la1":30.2991,"la2":30.254,"lo1":-89.0895,"lo2":-89.0444,"dy":0.0017,"dx":0.0017,"nx":28,"ny":28,"refTime":"2025-04-03T03:00:00:Z","depth":"2","parameterNumber":3,"parameterNumberName":"V-component_of_CURRENTS"},"data":[0,0,0,0,0,0,0,0,0,0,0,0,0,0,0,0,0,0,0,0,0,0,0,0,0,0,0,0,0,0,0,0,0,0,0,0,0,0,0,0,0,0,0,0,0,0,0,0,0,0,0,0,0,0,0,0,0,0,-0.0241,-0.0241,0,-0.0148,-0.0147,-0.0146,-0.0082,-0.0081,-0.0081,-0.0081,0.0055,0.0058,0.0062,0,0,0,0,0,0,0,0,0,0,0,0,0,-0.0305,-0.0305,-0.0241,-0.024,-0.0239,-0.0149,-0.0147,-0.0146,-0.0082,-0.0081,-0.0081,-0.0081,0.0054,0.0058,0.0062,0,0,0,0,0,0,0,0,0,0,0,0,0,-0.025,-0.0305,-0.0242,-0.0198,-0.0193,-0.0149,-0.0147,-0.0145,-0.0082,-0.0081,-0.0081,-0.0081,0.0053,0.0058,0.0062,0.0084,0,0,0.0078,0.008,0,0,0,0,0,0,0,0,-0.0253,-0.0248,-0.0205,-0.0201,-0.0196,-0.0128,-0.012,-0.0067,-0.0082,-0.0122,-0.0081,-0.008,-0.0004,0.0006,0.0024,0.009,0.0096,0.0078,0.0081,0.0083,0.0085,0,0,0,0,0,0,0,-0.0257,-0.0251,-0.0203,-0.0204,-0.0198,-0.0163,-0.0155,-0.0109,-0.0065,-0.0119,-0.0114,-0.0107,-0.0,0.0019,0.0028,0.0098,0.0078,0.0082,0.0085,0.0087,0.02,0.02,0,0,0,0,0,0,-0.0276,-0.0255,-0.0206,-0.02,-0.0226,-0.0163,-0.0154,-0.0149,-0.0066,-0.0054,-0.0108,-0.0104,0.0011,0.0022,0.0033,0.0069,0.0083,0.0088,0.0091,0.02,0.02,0.02,0,0,0,0,0,0,-0.0278,-0.0273,-0.021,-0.0227,-0.0216,-0.0163,-0.0157,-0.0147,-0.0127,-0.0058,-0.0045,-0.0099,0.0011,0.0026,0.0071,0.0074,0.009,0.0095,0.02,0.02,0.02,0.0136,0,0,0,0,0,0,-0.028,-0.0274,-0.0277,-0.0228,-0.0216,-0.0191,-0.0157,-0.0146,-0.0124,-0.0119,-0.0046,-0.0033,0.0013,0.0063,0.0076,0.0081,0.0099,0.02,0.02,0.02,0.0138,0.0134,0.0131,0,0,0,0,0,-0.0283,-0.0292,-0.0278,-0.0272,-0.0223,-0.0191,-0.0182,-0.014,-0.0125,-0.012,-0.007,-0.0035,0.0072,0.0067,0.0082,0.0089,0.02,0.02,0.02,0.014,0.0135,0.0131,0,0,0,0,0,0,-0.032,-0.0285,-0.0269,-0.0267,-0.0235,-0.0181,-0.0175,-0.0147,-0.0104,-0.0099,-0.0034,-0.0017,0.0021,0.0063,0.0055,0.0121,0.0142,0.0145,0.0091,0.0087,0.0083,0.0072,0.0103,0,0,0,0,0,-0.0332,-0.0331,-0.0289,-0.0287,-0.0276,-0.0227,-0.021,-0.0182,-0.0139,-0.0119,-0.0068,-0.0014,0.0033,0.0064,0.0108,0.0147,0.0195,0.0162,0.0158,0.0154,0.0155,0.0233,0.0236,0.02,0.02,0.02,0,0,-0.0346,-0.0328,-0.0326,-0.0296,-0.0268,-0.0257,-0.0215,-0.0196,-0.018,-0.0111,-0.0077,-0.003,0.0037,0.0078,0.01,0.0115,0.0186,0.0154,0.015,0.0154,0.0233,0.0237,0.024,0.0201,0.0201,0.02,0,0,-0.038,-0.0358,-0.0371,-0.0349,-0.0317,-0.0284,-0.0283,-0.0233,-0.0205,-0.0167,-0.0116,-0.0066,0.0004,0.0058,0.0093,0.0095,0.0156,0.0106,0.0088,0.0163,0.0167,0.017,0.022,0.0229,0.0112,0.0112,0.0112,0,-0.0399,-0.0407,-0.0369,-0.0373,-0.0362,-0.0303,-0.031,-0.027,-0.021,-0.0184,-0.0167,-0.0053,-0.0002,0.0064,0.0062,0.0088,0.013,0.0098,0.0158,0.0163,0.0168,0.0218,0.0229,0.0109,0.0109,0.011,0.011,0,-0.0439,-0.0444,-0.045,-0.0436,-0.0415,-0.0412,-0.0357,-0.0329,-0.0289,-0.024,-0.0174,-0.0097,-0.0027,-0.0003,0.0031,0.0092,0.0109,0.0136,0.0167,0.0168,0.0221,0.0233,0.0105,0.0106,0.0107,0.0107,0,0,-0.0484,-0.0482,-0.0483,-0.0493,-0.0451,-0.0441,-0.0411,-0.0363,-0.0337,-0.0265,-0.0221,-0.0135,-0.0086,-0.0044,0.0015,0.0084,0.0148,0.0118,0.0123,0.0162,0.0298,0.0321,0.0337,0.0187,0.0189,0.019,0.0315,0,-0.0529,-0.0568,-0.054,-0.0562,-0.0578,-0.0514,-0.049,-0.0434,-0.037,-0.0309,-0.0208,-0.0145,-0.0102,-0.0066,0.0007,0.0117,0.018,0.0111,0.0297,0.0303,0.032,0.0353,0.0296,0.0404,0.0328,0.033,0.0331,0,-0.0576,-0.0599,-0.064,-0.0636,-0.0634,-0.0628,-0.0576,-0.0545,-0.0437,-0.0384,-0.0292,-0.0207,-0.0095,-0.0062,0.0129,0.0083,0.0176,0.0263,0.027,0.0325,0.035,0.0396,0.043,0.0352,0.0351,0.0349,0.0348,0,-0.0644,-0.0663,-0.0705,-0.0704,-0.0686,-0.0682,-0.0658,-0.0571,-0.054,-0.0424,-0.0378,-0.0234,-0.0152,-0.0009,0.0162,0.0151,0.0371,0.0384,0.0492,0.0494,0.0501,0.05,0.0513,0.0513,0.0513,0.0512,0.0512,0,-0.0708,-0.0737,-0.0744,-0.0768,-0.0801,-0.0754,-0.0752,-0.0699,-0.0614,-0.0569,-0.0426,-0.035,-0.0133,0.0021,0.016,0.0368,0.0375,0.0499,0.0539,0.0474,0.047,0.047,0.0463,0.0517,0.0516,0.0515,0.0514,0,-0.0778,-0.0782,-0.0833,-0.0839,-0.0841,-0.0864,-0.0834,-0.0821,-0.0726,-0.066,-0.0623,-0.042,-0.0207,0.0004,0.0256,0.0372,0.0562,0.0625,0.0523,0.0549,0.0629,0.0618,0.0767,0.0769,0.0771,0.0772,0.0774,0,-0.0819,-0.0858,-0.0901,-0.0934,-0.0942,-0.0962,-0.0968,-0.0893,-0.0864,-0.07,-0.0668,-0.0442,-0.027,0.0106,0.0355,0.0617,0.0618,0.0706,0.0684,0.0637,0.0661,0.0647,0.0633,0.066,0.066,0.066,0.0661,0,-0.0896,-0.0911,-0.0952,-0.1033,-0.1064,-0.1088,-0.1082,-0.1078,-0.0967,-0.0878,-0.0716,-0.056,-0.0185,0.0112,0.0452,0.0595,0.0662,0.0719,0.0727,0.0599,0.0546,0.0565,0.0554,0.0662,0.0662,0.0662,0.0662,0.0662,-0.0941,-0.0994,-0.1054,-0.1123,-0.1166,-0.1196,-0.1207,-0.1162,-0.1103,-0.0944,-0.0785,-0.0529,-0.0223,0.0262,0.0499,0.0716,0.0727,0.0769,0.0765,0.0761,0.0722,0.0674,0.0806,0.0806,0.0807,0.0807,0.0808,0,-0.0996,-0.1055,-0.1136,-0.1212,-0.1272,-0.1267,-0.1266,-0.1234,-0.1156,-0.0975,-0.0791,-0.0457,-0.011,0.0203,0.0547,0.0763,0.0738,0.0786,0.0705,0.0703,0.0701,0.0655,0.0723,0.0723,0.0724,0.0724,0,0,-0.1026,-0.1119,-0.1167,-0.1283,-0.1331,-0.137,-0.1365,-0.1279,-0.1146,-0.096,-0.0766,-0.0497,-0.0106,0.0116,0.0387,0.0562,0.0573,0.0574,0.0619,0.0488,0.0484,0.0669,0.0594,0,0,0,0,0]}],[{"header":{"parameterUnit":"m.s-1","parameterCategory":2,"la1":30.2991,"la2":30.254,"lo1":-89.0895,"lo2":-89.0444,"dy":0.0017,"dx":0.0017,"nx":28,"ny":28,"refTime":"2025-04-03T03:00:00:Z","depth":"4","parameterNumber":2,"parameterNumberName":"U-component_of_CURRENTS"},"data":[0,0,0,0,0,0,0,0,0,0,0,0,0,0,0,0,0,0,0,0,0,0,0,0,0,0,0,0,0,0,0,0,0,0,0,0,0,0,0,0,0,0,0,0,0,0,0,0,0,0,0,0,0,0,0,0,0,0,-0.16,-0.1601,0,-0.1656,-0.1657,-0.1657,-0.1688,-0.1688,-0.1688,-0.1689,-0.1728,-0.1728,-0.1729,0,0,0,0,0,0,0,0,0,0,0,0,0,-0.1512,-0.1513,-0.16,-0.1601,-0.1602,-0.1656,-0.1657,-0.1657,-0.1688,-0.1688,-0.1688,-0.1689,-0.1727,-0.1728,-0.1729,0,0,0,0,0,0,0,0,0,0,0,0,0,-0.1556,-0.1514,-0.16,-0.1625,-0.1628,-0.1656,-0.1657,-0.1658,-0.1688,-0.1688,-0.1689,-0.1689,-0.1727,-0.1728,-0.1729,-0.173,0,0,-0.1733,-0.1734,0,0,0,0,0,0,0,0,-0.1553,-0.1559,-0.162,-0.1623,-0.1626,-0.1667,-0.164,-0.1682,-0.1688,-0.1663,-0.1689,-0.1689,-0.1707,-0.1709,-0.1717,-0.1732,-0.1733,-0.1733,-0.1734,-0.1734,-0.1735,0,0,0,0,0,0,0,-0.155,-0.1556,-0.1621,-0.1621,-0.1625,-0.1631,-0.1637,-0.1648,-0.1681,-0.1665,-0.1668,-0.1677,-0.1708,-0.1716,-0.1718,-0.1734,-0.1733,-0.1734,-0.1735,-0.1736,-0.1819,-0.182,0,0,0,0,0,0,-0.1547,-0.1554,-0.1619,-0.1622,-0.1592,-0.1632,-0.1639,-0.1652,-0.1681,-0.1686,-0.1677,-0.1678,-0.1714,-0.1717,-0.172,-0.1791,-0.1734,-0.1736,-0.1736,-0.1818,-0.1819,-0.1821,0,0,0,0,0,0,-0.1545,-0.1552,-0.1617,-0.159,-0.1599,-0.1634,-0.1648,-0.1653,-0.1687,-0.169,-0.1695,-0.1708,-0.1714,-0.1718,-0.1756,-0.179,-0.1736,-0.1737,-0.1816,-0.1818,-0.182,-0.189,0,0,0,0,0,0,-0.1542,-0.1551,-0.1571,-0.159,-0.1601,-0.1654,-0.1648,-0.1654,-0.1691,-0.1695,-0.1718,-0.172,-0.1715,-0.1754,-0.1757,-0.1791,-0.1738,-0.1814,-0.1817,-0.182,-0.1886,-0.1895,-0.1902,0,0,0,0,0,-0.1539,-0.1563,-0.1572,-0.1581,-0.1623,-0.1655,-0.1661,-0.1685,-0.1693,-0.1715,-0.1732,-0.1721,-0.1773,-0.1756,-0.1759,-0.1795,-0.1813,-0.1816,-0.1819,-0.1883,-0.1893,-0.1902,0,0,0,0,0,0,-0.1538,-0.1569,-0.1579,-0.1613,-0.1641,-0.1661,-0.1688,-0.1701,-0.1733,-0.1742,-0.174,-0.1745,-0.179,-0.1783,-0.1764,-0.1827,-0.1791,-0.1795,-0.1838,-0.1848,-0.1856,-0.1847,-0.1739,0,0,0,0,0,-0.1546,-0.1572,-0.16,-0.163,-0.1646,-0.1672,-0.1692,-0.171,-0.1734,-0.175,-0.1766,-0.1784,-0.1802,-0.1818,-0.1831,-0.1866,-0.184,-0.1891,-0.1899,-0.1906,-0.1901,-0.1889,-0.1895,-0.1832,-0.1832,-0.1832,0,0,-0.1554,-0.1574,-0.1591,-0.1632,-0.1655,-0.1688,-0.1686,-0.1727,-0.1761,-0.1748,-0.1805,-0.1814,-0.1817,-0.1859,-0.1878,-0.1861,-0.1913,-0.191,-0.1916,-0.1907,-0.1893,-0.1899,-0.1904,-0.1834,-0.1834,-0.1833,0,0,-0.1573,-0.1604,-0.1629,-0.1658,-0.17,-0.1718,-0.1737,-0.1775,-0.1802,-0.1851,-0.185,-0.188,-0.1915,-0.1922,-0.1929,-0.1987,-0.1954,-0.1999,-0.2035,-0.2025,-0.2029,-0.2033,-0.2016,-0.2018,-0.2004,-0.2004,-0.2005,0,-0.1584,-0.1617,-0.1642,-0.1675,-0.1704,-0.1735,-0.1771,-0.1804,-0.1853,-0.1873,-0.1881,-0.1931,-0.1942,-0.1976,-0.2002,-0.2005,-0.1989,-0.2,-0.2034,-0.2037,-0.2039,-0.2021,-0.2022,-0.2008,-0.2008,-0.2007,-0.2007,0,-0.161,-0.1651,-0.1672,-0.1721,-0.1758,-0.1796,-0.1841,-0.1885,-0.192,-0.1942,-0.1995,-0.201,-0.2034,-0.2051,-0.2049,-0.2081,-0.206,-0.2043,-0.2007,-0.205,-0.2028,-0.2028,-0.2014,-0.2012,-0.2011,-0.201,0,0,-0.159,-0.1674,-0.1683,-0.1714,-0.1787,-0.1813,-0.1881,-0.1935,-0.1968,-0.2022,-0.2054,-0.2104,-0.2108,-0.2115,-0.2119,-0.2119,-0.2135,-0.2098,-0.2095,-0.2076,-0.2109,-0.1987,-0.1974,-0.2125,-0.2125,-0.2125,-0.2089,0,-0.1603,-0.1663,-0.1708,-0.1775,-0.1808,-0.1868,-0.1921,-0.1977,-0.2022,-0.2063,-0.2089,-0.2125,-0.2135,-0.215,-0.2157,-0.2138,-0.2136,-0.2146,-0.2074,-0.2071,-0.1953,-0.197,-0.2126,-0.2088,-0.2088,-0.2088,-0.2088,0,-0.1601,-0.1645,-0.171,-0.1793,-0.1815,-0.1867,-0.1945,-0.1999,-0.2064,-0.2098,-0.2139,-0.2154,-0.2185,-0.2175,-0.217,-0.2177,-0.2152,-0.2131,-0.2128,-0.1985,-0.1948,-0.2034,-0.2086,-0.2086,-0.2086,-0.2087,-0.2087,0,-0.1546,-0.1641,-0.1692,-0.1724,-0.1825,-0.1873,-0.1931,-0.2009,-0.2048,-0.2119,-0.2143,-0.2179,-0.2196,-0.218,-0.2163,-0.2167,-0.213,-0.2123,-0.1988,-0.1979,-0.2069,-0.2065,-0.2103,-0.2103,-0.2103,-0.2103,-0.2103,0,-0.1518,-0.1562,-0.1677,-0.1702,-0.1763,-0.1849,-0.1914,-0.1976,-0.2052,-0.2078,-0.2156,-0.2163,-0.2199,-0.2187,-0.2161,-0.2068,-0.213,-0.1985,-0.1957,-0.2102,-0.2102,-0.2069,-0.2065,-0.2101,-0.2102,-0.2102,-0.2102,0,-0.144,-0.152,-0.158,-0.1698,-0.1738,-0.178,-0.1899,-0.1928,-0.2028,-0.2061,-0.2085,-0.2155,-0.214,-0.2149,-0.2114,-0.2048,-0.1981,-0.1932,-0.2087,-0.2069,-0.1839,-0.184,-0.1768,-0.1764,-0.176,-0.1756,-0.1753,0,-0.1402,-0.1426,-0.1554,-0.1584,-0.1644,-0.1727,-0.1769,-0.1894,-0.1919,-0.2029,-0.2016,-0.2057,-0.2081,-0.1934,-0.1967,-0.1899,-0.1878,-0.1835,-0.1837,-0.1823,-0.1803,-0.1811,-0.1817,-0.1747,-0.1746,-0.1745,-0.1744,0,-0.1315,-0.1373,-0.1417,-0.1484,-0.1544,-0.16,-0.1677,-0.1683,-0.1804,-0.1914,-0.1891,-0.1879,-0.1858,-0.1834,-0.1797,-0.1751,-0.1858,-0.1793,-0.1801,-0.1802,-0.1796,-0.1783,-0.1793,-0.173,-0.1732,-0.1733,-0.1734,0,-0.1243,-0.1249,-0.1312,-0.1354,-0.1422,-0.1439,-0.1508,-0.1536,-0.1585,-0.1715,-0.1698,-0.1752,-0.1829,-0.1755,-0.1718,-0.1667,-0.1641,-0.1584,-0.1602,-0.1618,-0.1586,-0.1557,-0.1382,0,0,0,0,0,-0.1157,-0.1143,-0.1173,-0.1211,-0.1272,-0.1313,-0.1416,-0.1488,-0.1609,-0.1543,-0.162,-0.1595,-0.1561,-0.1594,-0.1506,-0.1642,-0.1643,-0.1534,-0.1586,-0.1653,-0.1669,-0.1646,0,0,0,0,0,0,-0.1097,-0.1112,-0.112,-0.1074,-0.1073,-0.1126,-0.1187,-0.1281,-0.1261,-0.1392,-0.1378,-0.1485,-0.147,-0.1571,-0.1464,-0.1473,-0.147,-0.158,-0.1575,-0.1644,-0.1659,-0.1672,-0.1653,0,0,0,0,0]},{"header":{"parameterUnit":"m.s-1","parameterCategory":2,"la1":30.2991,"la2":30.254,"lo1":-89.0895,"lo2":-89.0444,"dy":0.0017,"dx":0.0017,"nx":28,"ny":28,"refTime":"2025-04-03T03:00:00:Z","depth":"4","parameterNumber":3,"parameterNumberName":"V-component_of_CURRENTS"},"data":[0,0,0,0,0,0,0,0,0,0,0,0,0,0,0,0,0,0,0,0,0,0,0,0,0,0,0,0,0,0,0,0,0,0,0,0,0,0,0,0,0,0,0,0,0,0,0,0,0,0,0,0,0,0,0,0,0,0,-0.0179,-0.0178,0,-0.0113,-0.0112,-0.0111,-0.0073,-0.0073,-0.0073,-0.0073,0.0036,0.0038,0.0041,0,0,0,0,0,0,0,0,0,0,0,0,0,-0.0229,-0.0229,-0.0179,-0.0178,-0.0177,-0.0113,-0.0112,-0.0111,-0.0073,-0.0073,-0.0073,-0.0073,0.0035,0.0038,0.0042,0,0,0,0,0,0,0,0,0,0,0,0,0,-0.0188,-0.0228,-0.0179,-0.0152,-0.0149,-0.0113,-0.0112,-0.0111,-0.0073,-0.0073,-0.0073,-0.0073,0.0034,0.0038,0.0042,0.0068,0,0,0.0055,0.0057,0,0,0,0,0,0,0,0,-0.0191,-0.0186,-0.0156,-0.0153,-0.015,-0.0102,-0.009,-0.0049,-0.0073,-0.01,-0.0073,-0.0073,-0.0007,0.0,0.0014,0.0073,0.0078,0.0056,0.0058,0.006,0.0061,0,0,0,0,0,0,0,-0.0194,-0.0189,-0.0151,-0.0156,-0.0152,-0.0129,-0.0123,-0.0082,-0.0053,-0.0098,-0.0095,-0.009,-0.0005,0.001,0.0017,0.008,0.0056,0.0059,0.0062,0.0064,0.0151,0.0151,0,0,0,0,0,0,-0.0207,-0.0192,-0.0153,-0.0149,-0.0173,-0.0128,-0.0122,-0.0117,-0.0054,-0.0045,-0.009,-0.0089,0.0002,0.0012,0.0021,0.0037,0.006,0.0064,0.0067,0.0152,0.0151,0.0151,0,0,0,0,0,0,-0.0208,-0.0204,-0.0156,-0.017,-0.0163,-0.0128,-0.0122,-0.0115,-0.0103,-0.0049,-0.0039,-0.0086,0.0003,0.0015,0.005,0.0042,0.0066,0.007,0.0152,0.0151,0.0151,0.008,0,0,0,0,0,0,-0.021,-0.0205,-0.0208,-0.0171,-0.0162,-0.0143,-0.0122,-0.0114,-0.0101,-0.0098,-0.0042,-0.0032,0.0004,0.0043,0.0054,0.0048,0.0073,0.0152,0.0152,0.0151,0.0083,0.0078,0.0073,0,0,0,0,0,-0.0212,-0.0216,-0.0208,-0.0204,-0.0167,-0.0143,-0.0137,-0.011,-0.0101,-0.0099,-0.0063,-0.0033,0.0047,0.0046,0.0059,0.0055,0.0152,0.0152,0.0151,0.0085,0.0079,0.0073,0,0,0,0,0,0,-0.0236,-0.0212,-0.0202,-0.0198,-0.0177,-0.0138,-0.0134,-0.0115,-0.0085,-0.0083,-0.0032,-0.0019,0.0005,0.0042,0.0039,0.0078,0.0103,0.0105,0.0049,0.0043,0.0038,0.0021,0.0077,0,0,0,0,0,-0.0245,-0.0244,-0.0214,-0.0212,-0.0204,-0.0171,-0.0159,-0.0142,-0.011,-0.0097,-0.0058,-0.0018,0.0014,0.0037,0.007,0.0098,0.0135,0.0103,0.0098,0.0093,0.0089,0.013,0.0128,0.0149,0.0149,0.0149,0,0,-0.0254,-0.0241,-0.024,-0.0218,-0.02,-0.0198,-0.0164,-0.0151,-0.0148,-0.0088,-0.0072,-0.0035,0.0016,0.0039,0.0054,0.007,0.0108,0.0093,0.0088,0.0086,0.0129,0.0127,0.0126,0.0149,0.0149,0.0149,0,0,-0.0278,-0.0261,-0.0272,-0.026,-0.0241,-0.0219,-0.022,-0.0185,-0.0169,-0.0145,-0.0109,-0.0077,-0.0021,0.0009,0.0033,0.0023,0.0075,0.0035,0.0003,0.0043,0.0042,0.0041,0.0088,0.0092,0.0038,0.0037,0.0037,0,-0.0293,-0.0302,-0.0271,-0.028,-0.0279,-0.0235,-0.0249,-0.0223,-0.0182,-0.0171,-0.0151,-0.0079,-0.0037,-0.0009,-0.0015,0.0011,0.0046,0.002,0.0036,0.0036,0.0036,0.0085,0.009,0.0034,0.0034,0.0035,0.0035,0,-0.0324,-0.0335,-0.034,-0.0341,-0.0331,-0.0335,-0.0302,-0.0288,-0.0261,-0.0232,-0.0199,-0.0139,-0.0097,-0.0079,-0.0048,-0.0028,0.0001,0.0019,0.0048,0.003,0.0083,0.0089,0.0029,0.003,0.0031,0.0032,0,0,-0.0351,-0.0364,-0.0367,-0.0387,-0.0367,-0.0365,-0.0359,-0.0341,-0.0337,-0.0287,-0.0273,-0.0217,-0.0179,-0.0151,-0.0104,-0.0065,-0.0031,-0.0026,-0.0022,0.0014,0.0065,0.0065,0.0073,-0.001,-0.0009,-0.0009,0.0102,0,-0.0391,-0.0435,-0.0421,-0.0459,-0.048,-0.0444,-0.0442,-0.0416,-0.0379,-0.0351,-0.0284,-0.025,-0.0207,-0.0184,-0.0142,-0.0055,-0.0017,-0.0063,0.0083,0.0088,0.0084,0.0079,-0.0007,0.0108,0.0109,0.0111,0.0111,0,-0.0428,-0.0456,-0.0508,-0.0531,-0.0535,-0.0546,-0.0537,-0.0528,-0.0472,-0.0439,-0.0388,-0.0325,-0.0257,-0.0221,-0.0089,-0.0118,-0.004,0.0028,0.0035,0.0062,0.0099,0.0131,0.0124,0.0123,0.0122,0.0121,0.0121,0,-0.0475,-0.0515,-0.0564,-0.0573,-0.0586,-0.06,-0.0599,-0.056,-0.0552,-0.049,-0.0464,-0.0376,-0.0316,-0.0217,-0.0071,-0.0079,0.0082,0.0091,0.0165,0.0167,0.0166,0.0166,0.0172,0.0172,0.0171,0.0171,0.0171,0,-0.0522,-0.0561,-0.0596,-0.0624,-0.0675,-0.0658,-0.0687,-0.0664,-0.0625,-0.0607,-0.0516,-0.0466,-0.0312,-0.0195,-0.0081,0.0069,0.0078,0.0158,0.0192,0.0135,0.013,0.0171,0.017,0.0175,0.0174,0.0174,0.0173,0,-0.0563,-0.0586,-0.0649,-0.0687,-0.0703,-0.0738,-0.0754,-0.0762,-0.0714,-0.0683,-0.0662,-0.0523,-0.0363,-0.0203,-0.0015,0.0062,0.0202,0.025,0.0188,0.0217,0.0261,0.0255,0.0334,0.0334,0.0335,0.0336,0.0336,0,-0.0588,-0.0627,-0.0702,-0.0744,-0.0768,-0.0814,-0.0838,-0.0813,-0.0805,-0.0709,-0.0687,-0.053,-0.0422,-0.0148,0.0008,0.0225,0.0249,0.0312,0.0269,0.0251,0.0276,0.0269,0.0262,0.0337,0.0337,0.0338,0.0338,0,-0.0632,-0.0663,-0.0712,-0.0802,-0.0852,-0.0899,-0.0922,-0.0921,-0.0867,-0.0828,-0.0688,-0.0534,-0.0348,-0.0142,0.0035,0.0184,0.0263,0.032,0.0319,0.0278,0.0257,0.0279,0.0271,0.034,0.034,0.034,0.034,0,-0.0657,-0.0703,-0.0771,-0.0844,-0.0914,-0.0952,-0.0964,-0.0929,-0.0906,-0.0786,-0.0738,-0.0528,-0.0398,-0.0161,-0.0001,0.015,0.0174,0.0197,0.0203,0.0202,0.0123,0.0074,0.0129,0,0,0,0,0,-0.0674,-0.0725,-0.0804,-0.0879,-0.0949,-0.098,-0.1001,-0.0992,-0.0939,-0.0846,-0.0786,-0.0606,-0.0337,-0.0214,-0.0063,-0.0013,0.018,0.0165,0.0203,0.0354,0.0351,0.028,0,0,0,0,0,0,-0.0686,-0.0761,-0.0803,-0.0889,-0.094,-0.1,-0.1014,-0.0979,-0.0913,-0.0838,-0.0689,-0.0591,-0.0328,-0.0419,-0.0063,-0.0016,0.0022,0.0299,0.0302,0.0355,0.0353,0.0351,0.0276,0,0,0,0,0]}]]